Time,TemperatureF,DewpointF,PressureIn,WindDirection,WindDirectionDegrees,WindSpeedMPH,WindSpeedGustMPH,Humidity,HourlyPrecipIn,Conditions,Clouds,dailyrainin,SoftwareType,DateUTC
2013-08-09 00:00:00,76.5,71.0,29.95,SSE,158,0.0,0.0,83,0.00,,---,0.00,VWS V14.01,2013-08-09 04:00:00,
2013-08-09 00:01:00,76.1,70.9,29.95,SSE,160,0.0,0.0,84,0.00,,---,0.00,VWS V14.01,2013-08-09 04:01:00,
2013-08-09 00:05:00,76.5,71.0,29.95,SSE,158,0.0,0.0,83,0.00,,---,0.00,VWS V14.01,2013-08-09 04:05:00,
2013-08-09 00:06:00,76.1,70.9,29.95,ESE,103,0.0,0.0,84,0.00,,---,0.00,VWS V14.01,2013-08-09 04:06:00,
2013-08-09 00:10:00,76.5,71.0,29.95,SSE,158,0.0,0.0,83,0.00,,---,0.00,VWS V14.01,2013-08-09 04:10:00,
2013-08-09 00:11:00,76.1,70.9,29.95,South,169,0.0,0.0,84,0.00,,---,0.00,VWS V14.01,2013-08-09 04:11:00,
2013-08-09 00:15:00,76.3,71.1,29.95,SSE,158,0.0,0.0,84,0.00,,---,0.00,VWS V14.01,2013-08-09 04:15:00,
2013-08-09 00:16:00,76.1,70.9,29.95,SE,130,0.0,2.0,84,0.00,,---,0.00,VWS V14.01,2013-08-09 04:16:00,
2013-08-09 00:20:00,76.3,71.1,29.95,SSE,158,0.0,0.0,84,0.00,,---,0.00,VWS V14.01,2013-08-09 04:20:00,
2013-08-09 00:21:00,76.3,70.8,29.95,SE,128,0.0,2.0,83,0.00,,---,0.00,VWS V14.01,2013-08-09 04:21:00,
2013-08-09 00:25:00,76.1,70.9,29.95,SSE,158,0.0,0.0,84,0.00,,---,0.00,VWS V14.01,2013-08-09 04:25:00,
2013-08-09 00:26:00,76.3,71.1,29.95,SE,130,0.0,0.0,84,0.00,,---,0.00,VWS V14.01,2013-08-09 04:26:00,
2013-08-09 00:30:00,76.1,70.9,29.96,SSE,158,0.0,0.0,84,0.00,,---,0.00,VWS V14.01,2013-08-09 04:30:00,
2013-08-09 00:31:00,76.3,71.1,29.95,SE,130,0.0,0.0,84,0.00,,---,0.00,VWS V14.01,2013-08-09 04:31:00,
2013-08-09 00:35:00,76.1,70.9,29.96,SSE,158,0.0,0.0,84,0.00,,---,0.00,VWS V14.01,2013-08-09 04:35:00,
2013-08-09 00:36:00,76.3,71.1,29.95,SE,128,0.0,0.0,84,0.00,,---,0.00,VWS V14.01,2013-08-09 04:36:00,
2013-08-09 00:40:00,76.0,70.8,29.96,SSE,160,0.0,0.0,84,0.00,,---,0.00,VWS V14.01,2013-08-09 04:40:00,
2013-08-09 00:41:00,76.5,71.3,29.95,SE,131,0.0,0.0,84,0.00,,---,0.00,VWS V14.01,2013-08-09 04:41:00,
2013-08-09 00:45:00,76.0,70.8,29.95,SSE,160,0.0,0.0,84,0.00,,---,0.00,VWS V14.01,2013-08-09 04:45:00,
2013-08-09 00:46:00,76.5,71.3,29.95,SSE,154,0.0,3.0,84,0.00,,---,0.00,VWS V14.01,2013-08-09 04:46:00,
2013-08-09 00:50:00,76.0,70.8,29.95,SSE,160,0.0,0.0,84,0.00,,---,0.00,VWS V14.01,2013-08-09 04:50:00,
2013-08-09 00:51:00,76.7,71.5,29.95,SE,136,0.0,1.0,84,0.00,,---,0.00,VWS V14.01,2013-08-09 04:51:00,
2013-08-09 00:55:00,76.0,70.8,29.95,SSE,160,0.0,0.0,84,0.00,,---,0.00,VWS V14.01,2013-08-09 04:55:00,
2013-08-09 00:56:00,76.7,71.5,29.95,SE,136,0.0,0.0,84,0.00,,---,0.00,VWS V14.01,2013-08-09 04:56:00,
2013-08-09 01:00:00,76.1,70.9,29.95,SSE,160,0.0,0.0,84,0.00,,---,0.00,VWS V14.01,2013-08-09 05:00:00,
2013-08-09 01:01:00,76.7,71.5,29.94,SSE,157,0.0,2.0,84,0.00,,---,0.00,VWS V14.01,2013-08-09 05:01:00,
2013-08-09 01:05:00,76.1,70.9,29.95,ESE,103,0.0,0.0,84,0.00,,---,0.00,VWS V14.01,2013-08-09 05:05:00,
2013-08-09 01:06:00,76.8,71.6,29.94,SSE,154,0.0,0.0,84,0.00,,---,0.00,VWS V14.01,2013-08-09 05:06:00,
2013-08-09 01:10:00,76.1,70.9,29.95,South,169,0.0,0.0,84,0.00,,---,0.00,VWS V14.01,2013-08-09 05:10:00,
2013-08-09 01:11:00,76.7,71.5,29.94,SE,133,0.0,2.0,84,0.00,,---,0.00,VWS V14.01,2013-08-09 05:11:00,
2013-08-09 01:15:00,76.1,70.9,29.95,SE,130,0.0,2.0,84,0.00,,---,0.00,VWS V14.01,2013-08-09 05:15:00,
2013-08-09 01:16:00,76.7,71.5,29.94,SE,136,0.0,2.0,84,0.00,,---,0.00,VWS V14.01,2013-08-09 05:16:00,
2013-08-09 01:20:00,76.3,70.8,29.95,SE,128,0.0,2.0,83,0.00,,---,0.00,VWS V14.01,2013-08-09 05:20:00,
2013-08-09 01:21:00,76.8,71.6,29.94,SE,134,0.0,0.0,84,0.00,,---,0.00,VWS V14.01,2013-08-09 05:21:00,
2013-08-09 01:25:00,76.3,71.1,29.95,SE,130,0.0,0.0,84,0.00,,---,0.00,VWS V14.01,2013-08-09 05:25:00,
2013-08-09 01:26:00,76.7,71.5,29.94,SE,134,0.0,0.0,84,0.00,,---,0.00,VWS V14.01,2013-08-09 05:26:00,
2013-08-09 01:30:00,76.3,71.1,29.95,SE,130,0.0,0.0,84,0.00,,---,0.00,VWS V14.01,2013-08-09 05:30:00,
2013-08-09 01:31:00,76.7,71.5,29.95,SE,130,0.0,0.0,84,0.00,,---,0.00,VWS V14.01,2013-08-09 05:31:00,
2013-08-09 01:35:00,76.3,71.1,29.95,SE,128,0.0,0.0,84,0.00,,---,0.00,VWS V14.01,2013-08-09 05:35:00,
2013-08-09 01:36:00,76.7,71.5,29.95,SE,130,0.0,0.0,84,0.00,,---,0.00,VWS V14.01,2013-08-09 05:36:00,
2013-08-09 01:40:00,76.5,71.3,29.95,SSW,195,0.0,0.0,84,0.00,,---,0.00,VWS V14.01,2013-08-09 05:40:00,
2013-08-09 01:41:00,76.7,71.5,29.95,SE,131,0.0,0.0,84,0.00,,---,0.00,VWS V14.01,2013-08-09 05:41:00,
2013-08-09 01:45:00,76.5,71.3,29.95,SSE,154,0.0,3.0,84,0.00,,---,0.00,VWS V14.01,2013-08-09 05:45:00,
2013-08-09 01:46:00,76.7,71.5,29.94,SE,131,0.0,1.0,84,0.00,,---,0.00,VWS V14.01,2013-08-09 05:46:00,
2013-08-09 01:50:00,76.7,71.5,29.95,SE,136,0.0,1.0,84,0.00,,---,0.00,VWS V14.01,2013-08-09 05:50:00,
2013-08-09 01:51:00,76.5,71.7,29.94,SE,131,0.0,0.0,85,0.00,,---,0.00,VWS V14.01,2013-08-09 05:51:00,
2013-08-09 01:55:00,76.7,71.5,29.95,SE,136,0.0,0.0,84,0.00,,---,0.00,VWS V14.01,2013-08-09 05:55:00,
2013-08-09 01:56:00,76.5,71.7,29.94,SE,131,0.0,0.0,85,0.00,,---,0.00,VWS V14.01,2013-08-09 05:56:00,
2013-08-09 02:00:00,76.7,71.5,29.94,SSE,157,0.0,2.0,84,0.00,,---,0.00,VWS V14.01,2013-08-09 06:00:00,
2013-08-09 02:01:00,76.5,71.7,29.94,SE,131,0.0,1.0,85,0.00,,---,0.00,VWS V14.01,2013-08-09 06:01:00,
2013-08-09 02:05:00,76.8,71.6,29.94,SSE,152,0.0,0.0,84,0.00,,---,0.00,VWS V14.01,2013-08-09 06:05:00,
2013-08-09 02:06:00,76.5,71.7,29.94,SE,131,0.0,0.0,85,0.00,,---,0.00,VWS V14.01,2013-08-09 06:06:00,
2013-08-09 02:10:00,76.7,71.5,29.94,SE,133,0.0,2.0,84,0.00,,---,0.00,VWS V14.01,2013-08-09 06:10:00,
2013-08-09 02:11:00,76.5,71.7,29.94,SE,131,0.0,0.0,85,0.00,,---,0.00,VWS V14.01,2013-08-09 06:11:00,
2013-08-09 02:15:00,76.7,71.5,29.94,SE,136,0.0,2.0,84,0.00,,---,0.00,VWS V14.01,2013-08-09 06:15:00,
2013-08-09 02:16:00,76.5,71.7,29.94,SE,140,0.0,0.0,85,0.00,,---,0.00,VWS V14.01,2013-08-09 06:16:00,
2013-08-09 02:20:00,76.8,71.6,29.94,SE,134,0.0,0.0,84,0.00,,---,0.00,VWS V14.01,2013-08-09 06:20:00,
2013-08-09 02:21:00,76.5,71.7,29.94,SE,137,0.0,2.0,85,0.00,,---,0.00,VWS V14.01,2013-08-09 06:21:00,
2013-08-09 02:25:00,76.7,71.5,29.94,SE,134,0.0,0.0,84,0.00,,---,0.00,VWS V14.01,2013-08-09 06:25:00,
2013-08-09 02:26:00,76.5,71.7,29.94,SE,134,0.0,1.0,85,0.00,,---,0.00,VWS V14.01,2013-08-09 06:26:00,
2013-08-09 02:30:00,76.7,71.5,29.95,SE,130,0.0,0.0,84,0.00,,---,0.00,VWS V14.01,2013-08-09 06:30:00,
2013-08-09 02:31:00,76.5,71.7,29.94,SE,133,0.0,1.0,85,0.00,,---,0.00,VWS V14.01,2013-08-09 06:31:00,
2013-08-09 02:35:00,76.7,71.5,29.95,SE,130,0.0,0.0,84,0.00,,---,0.00,VWS V14.01,2013-08-09 06:35:00,
2013-08-09 02:36:00,76.5,71.7,29.94,SSW,210,0.0,1.0,85,0.00,,---,0.00,VWS V14.01,2013-08-09 06:36:00,
2013-08-09 02:40:00,76.7,71.5,29.95,SE,131,0.0,0.0,84,0.00,,---,0.00,VWS V14.01,2013-08-09 06:40:00,
2013-08-09 02:41:00,76.5,71.7,29.94,SE,130,0.0,1.0,85,0.00,,---,0.00,VWS V14.01,2013-08-09 06:41:00,
2013-08-09 02:45:00,76.7,71.5,29.94,SE,131,0.0,1.0,84,0.00,,---,0.00,VWS V14.01,2013-08-09 06:45:00,
2013-08-09 02:46:00,76.5,71.7,29.94,SE,144,0.0,3.0,85,0.00,,---,0.00,VWS V14.01,2013-08-09 06:46:00,
2013-08-09 02:50:00,76.5,71.7,29.94,SE,131,0.0,0.0,85,0.00,,---,0.00,VWS V14.01,2013-08-09 06:50:00,
2013-08-09 02:51:00,76.5,72.0,29.94,ESE,103,0.0,2.0,86,0.00,,---,0.00,VWS V14.01,2013-08-09 06:51:00,
2013-08-09 02:55:00,76.5,71.7,29.94,SE,131,0.0,0.0,85,0.00,,---,0.00,VWS V14.01,2013-08-09 06:55:00,
2013-08-09 02:56:00,76.5,72.0,29.94,South,184,0.0,1.0,86,0.00,,---,0.00,VWS V14.01,2013-08-09 06:56:00,
2013-08-09 03:00:00,76.5,71.7,29.94,SE,131,0.0,1.0,85,0.00,,---,0.00,VWS V14.01,2013-08-09 07:00:00,
2013-08-09 03:01:00,76.5,72.0,29.93,East,83,0.0,2.0,86,0.00,,---,0.00,VWS V14.01,2013-08-09 07:01:00,
2013-08-09 03:05:00,76.5,71.7,29.94,SE,131,0.0,0.0,85,0.00,,---,0.00,VWS V14.01,2013-08-09 07:05:00,
2013-08-09 03:06:00,76.5,72.0,29.93,South,182,0.0,2.0,86,0.00,,---,0.00,VWS V14.01,2013-08-09 07:06:00,
2013-08-09 03:10:00,76.5,71.7,29.94,SE,131,0.0,0.0,85,0.00,,---,0.00,VWS V14.01,2013-08-09 07:10:00,
2013-08-09 03:11:00,76.5,72.3,29.93,South,182,1.0,1.0,87,0.00,,---,0.00,VWS V14.01,2013-08-09 07:11:00,
2013-08-09 03:15:00,76.5,71.7,29.94,SE,140,0.0,0.0,85,0.00,,---,0.00,VWS V14.01,2013-08-09 07:15:00,
2013-08-09 03:16:00,76.3,72.2,29.93,SSE,155,0.0,0.0,87,0.00,,---,0.00,VWS V14.01,2013-08-09 07:16:00,
2013-08-09 03:20:00,76.5,71.7,29.94,SE,137,0.0,2.0,85,0.00,,---,0.00,VWS V14.01,2013-08-09 07:20:00,
2013-08-09 03:21:00,76.3,72.2,29.93,SSE,155,0.0,0.0,87,0.00,,---,0.00,VWS V14.01,2013-08-09 07:21:00,
2013-08-09 03:25:00,76.5,71.7,29.94,SE,134,0.0,1.0,85,0.00,,---,0.00,VWS V14.01,2013-08-09 07:25:00,
2013-08-09 03:26:00,76.3,72.2,29.93,SSE,155,0.0,0.0,87,0.00,,---,0.00,VWS V14.01,2013-08-09 07:26:00,
2013-08-09 03:30:00,76.5,71.7,29.94,SE,133,0.0,1.0,85,0.00,,---,0.00,VWS V14.01,2013-08-09 07:30:00,
2013-08-09 03:31:00,76.3,72.2,29.93,SSE,152,0.0,0.0,87,0.00,,---,0.00,VWS V14.01,2013-08-09 07:31:00,
2013-08-09 03:35:00,76.5,71.7,29.94,SSW,210,0.0,1.0,85,0.00,,---,0.00,VWS V14.01,2013-08-09 07:35:00,
2013-08-09 03:36:00,76.1,72.3,29.93,SSE,152,0.0,0.0,88,0.00,,---,0.00,VWS V14.01,2013-08-09 07:36:00,
2013-08-09 03:40:00,76.5,71.7,29.94,SE,130,0.0,1.0,85,0.00,,---,0.00,VWS V14.01,2013-08-09 07:40:00,
2013-08-09 03:41:00,76.1,72.3,29.93,SSE,152,0.0,0.0,88,0.00,,---,0.00,VWS V14.01,2013-08-09 07:41:00,
2013-08-09 03:45:00,76.5,71.7,29.94,SE,144,0.0,3.0,85,0.00,,---,0.00,VWS V14.01,2013-08-09 07:45:00,
2013-08-09 03:46:00,76.0,72.2,29.94,SSE,152,0.0,0.0,88,0.00,,---,0.00,VWS V14.01,2013-08-09 07:46:00,
2013-08-09 03:50:00,76.5,72.0,29.94,ESE,103,0.0,2.0,86,0.00,,---,0.00,VWS V14.01,2013-08-09 07:50:00,
2013-08-09 03:51:00,76.0,72.2,29.94,SSE,152,0.0,0.0,88,0.00,,---,0.00,VWS V14.01,2013-08-09 07:51:00,
2013-08-09 03:55:00,76.5,72.0,29.94,South,184,0.0,1.0,86,0.00,,---,0.00,VWS V14.01,2013-08-09 07:55:00,
2013-08-09 03:56:00,76.0,72.5,29.94,SSE,152,0.0,0.0,89,0.00,,---,0.00,VWS V14.01,2013-08-09 07:56:00,
2013-08-09 04:00:00,76.5,72.0,29.93,East,83,0.0,2.0,86,0.00,,---,0.00,VWS V14.01,2013-08-09 08:00:00,
2013-08-09 04:01:00,76.0,72.2,29.94,SSE,152,0.0,0.0,88,0.00,,---,0.00,VWS V14.01,2013-08-09 08:01:00,
2013-08-09 04:05:00,76.5,72.0,29.93,South,182,0.0,2.0,86,0.00,,---,0.00,VWS V14.01,2013-08-09 08:05:00,
2013-08-09 04:06:00,76.0,72.5,29.94,SSE,152,0.0,0.0,89,0.00,,---,0.00,VWS V14.01,2013-08-09 08:06:00,
2013-08-09 04:10:00,76.5,72.3,29.93,South,182,0.0,1.0,87,0.00,,---,0.00,VWS V14.01,2013-08-09 08:10:00,
2013-08-09 04:11:00,76.0,72.5,29.94,SSE,152,0.0,0.0,89,0.00,,---,0.00,VWS V14.01,2013-08-09 08:11:00,
2013-08-09 04:15:00,76.3,72.2,29.93,SSE,155,0.0,0.0,87,0.00,,---,0.00,VWS V14.01,2013-08-09 08:15:00,
2013-08-09 04:16:00,75.8,72.0,29.95,SSE,152,0.0,0.0,88,0.00,,---,0.00,VWS V14.01,2013-08-09 08:16:00,
2013-08-09 04:20:00,76.3,72.2,29.93,SSE,155,0.0,0.0,87,0.00,,---,0.00,VWS V14.01,2013-08-09 08:20:00,
2013-08-09 04:21:00,75.8,72.3,29.95,SSE,152,0.0,0.0,89,0.00,,---,0.00,VWS V14.01,2013-08-09 08:21:00,
2013-08-09 04:25:00,76.3,72.2,29.93,SSE,155,0.0,0.0,87,0.00,,---,0.00,VWS V14.01,2013-08-09 08:25:00,
2013-08-09 04:26:00,75.8,72.3,29.95,SSE,152,0.0,0.0,89,0.00,,---,0.00,VWS V14.01,2013-08-09 08:26:00,
2013-08-09 04:30:00,76.3,72.2,29.93,SSE,152,0.0,0.0,87,0.00,,---,0.00,VWS V14.01,2013-08-09 08:30:00,
2013-08-09 04:31:00,75.6,72.1,29.95,SE,143,2.0,2.0,89,0.00,,---,0.00,VWS V14.01,2013-08-09 08:31:00,
2013-08-09 04:35:00,76.1,72.3,29.93,SSE,152,0.0,0.0,88,0.00,,---,0.00,VWS V14.01,2013-08-09 08:35:00,
2013-08-09 04:36:00,75.6,71.8,29.95,SE,136,0.0,0.0,88,0.00,,---,0.00,VWS V14.01,2013-08-09 08:36:00,
2013-08-09 04:40:00,76.1,72.3,29.93,SSE,152,0.0,0.0,88,0.00,,---,0.00,VWS V14.01,2013-08-09 08:40:00,
2013-08-09 04:41:00,75.6,71.8,29.95,SE,136,0.0,0.0,88,0.00,,---,0.00,VWS V14.01,2013-08-09 08:41:00,
2013-08-09 04:45:00,76.0,72.2,29.94,SSE,152,0.0,0.0,88,0.00,,---,0.00,VWS V14.01,2013-08-09 08:45:00,
2013-08-09 04:46:00,75.6,72.1,29.95,SE,136,0.0,0.0,89,0.00,,---,0.00,VWS V14.01,2013-08-09 08:46:00,
2013-08-09 04:50:00,76.0,72.2,29.94,SSE,152,0.0,0.0,88,0.00,,---,0.00,VWS V14.01,2013-08-09 08:50:00,
2013-08-09 04:51:00,75.6,71.8,29.95,SE,136,0.0,0.0,88,0.00,,---,0.00,VWS V14.01,2013-08-09 08:51:00,
2013-08-09 04:55:00,76.0,72.5,29.94,SSE,152,0.0,0.0,89,0.00,,---,0.00,VWS V14.01,2013-08-09 08:55:00,
2013-08-09 04:56:00,75.4,71.9,29.95,SE,136,0.0,0.0,89,0.00,,---,0.00,VWS V14.01,2013-08-09 08:56:00,
2013-08-09 05:00:00,76.0,72.2,29.94,SSE,152,0.0,0.0,88,0.00,,---,0.00,VWS V14.01,2013-08-09 09:00:00,
2013-08-09 05:01:00,75.4,71.9,29.95,SE,136,0.0,0.0,89,0.00,,---,0.00,VWS V14.01,2013-08-09 09:01:00,
2013-08-09 05:05:00,76.0,72.5,29.94,SSE,152,0.0,0.0,89,0.00,,---,0.00,VWS V14.01,2013-08-09 09:05:00,
2013-08-09 05:06:00,75.4,71.6,29.95,SE,136,0.0,0.0,88,0.00,,---,0.00,VWS V14.01,2013-08-09 09:06:00,
2013-08-09 05:10:00,75.8,72.3,29.94,SSE,152,0.0,0.0,89,0.00,,---,0.00,VWS V14.01,2013-08-09 09:10:00,
2013-08-09 05:11:00,75.4,71.6,29.95,SE,136,0.0,0.0,88,0.00,,---,0.00,VWS V14.01,2013-08-09 09:11:00,
2013-08-09 05:15:00,75.8,72.0,29.95,SSE,152,0.0,0.0,88,0.00,,---,0.00,VWS V14.01,2013-08-09 09:15:00,
2013-08-09 05:16:00,75.4,71.6,29.95,SE,126,0.0,3.0,88,0.00,,---,0.00,VWS V14.01,2013-08-09 09:16:00,
2013-08-09 05:20:00,75.8,72.3,29.95,SSE,152,0.0,0.0,89,0.00,,---,0.00,VWS V14.01,2013-08-09 09:20:00,
2013-08-09 05:21:00,75.4,71.6,29.95,ESE,109,0.0,2.0,88,0.00,,---,0.00,VWS V14.01,2013-08-09 09:21:00,
2013-08-09 05:25:00,75.8,72.3,29.95,SSE,152,0.0,0.0,89,0.00,,---,0.00,VWS V14.01,2013-08-09 09:25:00,
2013-08-09 05:26:00,75.4,71.6,29.95,ESE,110,0.0,2.0,88,0.00,,---,0.00,VWS V14.01,2013-08-09 09:26:00,
2013-08-09 05:30:00,75.6,72.1,29.95,SE,143,0.0,2.0,89,0.00,,---,0.00,VWS V14.01,2013-08-09 09:30:00,
2013-08-09 05:31:00,75.4,71.6,29.95,ESE,110,0.0,0.0,88,0.00,,---,0.00,VWS V14.01,2013-08-09 09:31:00,
2013-08-09 05:35:00,75.6,72.1,29.95,SE,136,0.0,0.0,89,0.00,,---,0.00,VWS V14.01,2013-08-09 09:35:00,
2013-08-09 05:36:00,75.4,71.3,29.95,ESE,110,0.0,1.0,87,0.00,,---,0.00,VWS V14.01,2013-08-09 09:36:00,
2013-08-09 05:40:00,75.6,71.8,29.95,SE,136,0.0,0.0,88,0.00,,---,0.00,VWS V14.01,2013-08-09 09:40:00,
2013-08-09 05:41:00,75.4,71.6,29.95,East,85,0.0,2.0,88,0.00,,---,0.00,VWS V14.01,2013-08-09 09:41:00,
2013-08-09 05:45:00,75.6,72.1,29.95,SE,136,0.0,0.0,89,0.00,,---,0.00,VWS V14.01,2013-08-09 09:45:00,
2013-08-09 05:46:00,75.4,71.6,29.95,East,97,0.0,1.0,88,0.00,,---,0.00,VWS V14.01,2013-08-09 09:46:00,
2013-08-09 05:50:00,75.6,71.8,29.95,SE,136,0.0,0.0,88,0.00,,---,0.00,VWS V14.01,2013-08-09 09:50:00,
2013-08-09 05:51:00,75.3,71.5,29.95,East,97,0.0,0.0,88,0.00,,---,0.00,VWS V14.01,2013-08-09 09:51:00,
2013-08-09 05:55:00,75.4,71.9,29.95,SE,136,0.0,0.0,89,0.00,,---,0.00,VWS V14.01,2013-08-09 09:55:00,
2013-08-09 05:56:00,75.3,71.5,29.95,East,97,0.0,0.0,88,0.00,,---,0.00,VWS V14.01,2013-08-09 09:56:00,
2013-08-09 06:00:00,75.4,71.9,29.95,SE,136,0.0,0.0,89,0.00,,---,0.00,VWS V14.01,2013-08-09 10:00:00,
2013-08-09 06:01:00,75.3,71.5,29.95,East,97,0.0,0.0,88,0.00,,---,0.00,VWS V14.01,2013-08-09 10:01:00,
2013-08-09 06:05:00,75.4,71.6,29.95,SE,136,0.0,0.0,88,0.00,,---,0.00,VWS V14.01,2013-08-09 10:05:00,
2013-08-09 06:06:00,75.3,71.5,29.95,East,96,0.0,0.0,88,0.00,,---,0.00,VWS V14.01,2013-08-09 10:06:00,
2013-08-09 06:10:00,75.4,71.6,29.95,SE,136,1.0,1.0,88,0.00,,---,0.00,VWS V14.01,2013-08-09 10:10:00,
2013-08-09 06:11:00,75.1,71.6,29.95,East,96,0.0,0.0,89,0.00,,---,0.00,VWS V14.01,2013-08-09 10:11:00,
2013-08-09 06:15:00,75.4,71.6,29.95,SE,126,0.0,3.0,88,0.00,,---,0.00,VWS V14.01,2013-08-09 10:15:00,
2013-08-09 06:16:00,75.1,71.6,29.96,ESE,114,0.0,1.0,89,0.00,,---,0.00,VWS V14.01,2013-08-09 10:16:00,
2013-08-09 06:20:00,75.4,71.6,29.95,ESE,109,0.0,2.0,88,0.00,,---,0.00,VWS V14.01,2013-08-09 10:20:00,
2013-08-09 06:21:00,75.1,71.6,29.96,ESE,114,0.0,0.0,89,0.00,,---,0.00,VWS V14.01,2013-08-09 10:21:00,
2013-08-09 06:25:00,75.4,71.6,29.95,ESE,110,0.0,2.0,88,0.00,,---,0.00,VWS V14.01,2013-08-09 10:25:00,
2013-08-09 06:26:00,75.1,71.6,29.96,ESE,114,0.0,0.0,89,0.00,,---,0.00,VWS V14.01,2013-08-09 10:26:00,
2013-08-09 06:30:00,75.4,71.6,29.95,ESE,110,0.0,0.0,88,0.00,,---,0.00,VWS V14.01,2013-08-09 10:30:00,
2013-08-09 06:31:00,75.1,71.6,29.96,ESE,114,1.0,2.0,89,0.00,,---,0.00,VWS V14.01,2013-08-09 10:31:00,
2013-08-09 06:35:00,75.4,71.3,29.95,ESE,110,0.0,1.0,87,0.00,,---,0.00,VWS V14.01,2013-08-09 10:35:00,
2013-08-09 06:36:00,74.9,71.4,29.96,ESE,114,0.0,0.0,89,0.00,,---,0.00,VWS V14.01,2013-08-09 10:36:00,
2013-08-09 06:40:00,75.4,71.6,29.95,East,85,0.0,2.0,88,0.00,,---,0.00,VWS V14.01,2013-08-09 10:40:00,
2013-08-09 06:41:00,74.9,71.4,29.96,ESE,117,0.0,0.0,89,0.00,,---,0.00,VWS V14.01,2013-08-09 10:41:00,
2013-08-09 06:45:00,75.4,71.6,29.95,East,97,0.0,1.0,88,0.00,,---,0.00,VWS V14.01,2013-08-09 10:45:00,
2013-08-09 06:46:00,74.9,71.4,29.96,SE,140,0.0,0.0,89,0.00,,---,0.00,VWS V14.01,2013-08-09 10:46:00,
2013-08-09 06:50:00,75.3,71.5,29.95,East,97,0.0,0.0,88,0.00,,---,0.00,VWS V14.01,2013-08-09 10:50:00,
2013-08-09 06:51:00,74.9,71.8,29.96,SE,140,0.0,0.0,90,0.00,,---,0.00,VWS V14.01,2013-08-09 10:51:00,
2013-08-09 06:55:00,75.3,71.5,29.95,East,97,0.0,0.0,88,0.00,,---,0.00,VWS V14.01,2013-08-09 10:55:00,
2013-08-09 06:56:00,74.9,71.4,29.96,SE,138,0.0,0.0,89,0.00,,---,0.00,VWS V14.01,2013-08-09 10:56:00,
2013-08-09 07:00:00,75.3,71.5,29.95,East,96,0.0,0.0,88,0.00,,---,0.00,VWS V14.01,2013-08-09 11:00:00,
2013-08-09 07:01:00,75.1,72.0,29.97,SE,137,0.0,0.0,90,0.00,,---,0.00,VWS V14.01,2013-08-09 11:01:00,
2013-08-09 07:05:00,75.3,71.5,29.95,East,96,0.0,0.0,88,0.00,,---,0.00,VWS V14.01,2013-08-09 11:05:00,
2013-08-09 07:06:00,75.1,72.0,29.97,SE,128,0.0,2.0,90,0.00,,---,0.00,VWS V14.01,2013-08-09 11:06:00,
2013-08-09 07:10:00,75.1,71.6,29.95,East,96,1.0,1.0,89,0.00,,---,0.00,VWS V14.01,2013-08-09 11:10:00,
2013-08-09 07:11:00,75.3,71.8,29.97,SSE,147,0.0,0.0,89,0.00,,---,0.00,VWS V14.01,2013-08-09 11:11:00,
2013-08-09 07:15:00,75.1,71.6,29.96,ESE,114,0.0,1.0,89,0.00,,---,0.00,VWS V14.01,2013-08-09 11:15:00,
2013-08-09 07:16:00,75.3,71.8,29.97,SSE,147,0.0,0.0,89,0.00,,---,0.00,VWS V14.01,2013-08-09 11:16:00,
2013-08-09 07:20:00,75.1,71.6,29.96,ESE,114,0.0,0.0,89,0.00,,---,0.00,VWS V14.01,2013-08-09 11:20:00,
2013-08-09 07:21:00,75.3,71.8,29.97,South,182,0.0,1.0,89,0.00,,---,0.00,VWS V14.01,2013-08-09 11:21:00,
2013-08-09 07:25:00,75.1,71.6,29.96,ESE,114,0.0,0.0,89,0.00,,---,0.00,VWS V14.01,2013-08-09 11:25:00,
2013-08-09 07:26:00,75.4,71.9,29.97,SSE,165,0.0,1.0,89,0.00,,---,0.00,VWS V14.01,2013-08-09 11:26:00,
2013-08-09 07:30:00,75.1,71.6,29.96,ESE,114,0.0,2.0,89,0.00,,---,0.00,VWS V14.01,2013-08-09 11:30:00,
2013-08-09 07:31:00,75.6,72.1,29.97,SSE,165,0.0,0.0,89,0.00,,---,0.00,VWS V14.01,2013-08-09 11:31:00,
2013-08-09 07:35:00,75.1,71.6,29.96,ESE,114,0.0,0.0,89,0.00,,---,0.00,VWS V14.01,2013-08-09 11:35:00,
2013-08-09 07:36:00,75.6,72.1,29.97,SSE,164,0.0,1.0,89,0.00,,---,0.00,VWS V14.01,2013-08-09 11:36:00,
2013-08-09 07:40:00,74.9,71.4,29.96,ESE,117,0.0,0.0,89,0.00,,---,0.00,VWS V14.01,2013-08-09 11:40:00,
2013-08-09 07:41:00,75.8,72.0,29.97,SSE,161,0.0,0.0,88,0.00,,---,0.00,VWS V14.01,2013-08-09 11:41:00,
2013-08-09 07:45:00,74.9,71.4,29.96,SE,140,0.0,0.0,89,0.00,,---,0.00,VWS V14.01,2013-08-09 11:45:00,
2013-08-09 07:46:00,76.0,72.2,29.97,SE,145,0.0,1.0,88,0.00,,---,0.00,VWS V14.01,2013-08-09 11:46:00,
2013-08-09 07:50:00,74.9,71.8,29.96,SE,140,0.0,0.0,90,0.00,,---,0.00,VWS V14.01,2013-08-09 11:50:00,
2013-08-09 07:51:00,76.1,72.3,29.97,SE,145,0.0,0.0,88,0.00,,---,0.00,VWS V14.01,2013-08-09 11:51:00,
2013-08-09 07:55:00,74.9,71.4,29.96,SE,138,0.0,0.0,89,0.00,,---,0.00,VWS V14.01,2013-08-09 11:55:00,
2013-08-09 07:56:00,76.1,71.9,29.97,West,275,0.0,2.0,87,0.00,,---,0.00,VWS V14.01,2013-08-09 11:56:00,
2013-08-09 08:00:00,75.1,72.0,29.97,SE,137,0.0,0.0,90,0.00,,---,0.00,VWS V14.01,2013-08-09 12:00:00,
2013-08-09 08:01:00,76.3,71.8,29.96,ESE,107,0.0,3.0,86,0.00,,---,0.00,VWS V14.01,2013-08-09 12:01:00,
2013-08-09 08:05:00,75.1,72.0,29.97,SSE,155,0.0,2.0,90,0.00,,---,0.00,VWS V14.01,2013-08-09 12:05:00,
2013-08-09 08:06:00,76.5,72.3,29.96,ESE,107,0.0,0.0,87,0.00,,---,0.00,VWS V14.01,2013-08-09 12:06:00,
2013-08-09 08:10:00,75.3,71.8,29.97,SSE,147,0.0,0.0,89,0.00,,---,0.00,VWS V14.01,2013-08-09 12:10:00,
2013-08-09 08:11:00,76.7,72.2,29.96,ESE,104,0.0,3.0,86,0.00,,---,0.00,VWS V14.01,2013-08-09 12:11:00,
2013-08-09 08:15:00,75.3,71.8,29.97,SSE,147,0.0,0.0,89,0.00,,---,0.00,VWS V14.01,2013-08-09 12:15:00,
2013-08-09 08:16:00,77.0,72.2,29.97,ESE,104,0.0,2.0,85,0.00,,---,0.00,VWS V14.01,2013-08-09 12:16:00,
2013-08-09 08:20:00,75.3,71.8,29.97,South,182,0.0,1.0,89,0.00,,---,0.00,VWS V14.01,2013-08-09 12:20:00,
2013-08-09 08:21:00,77.2,72.0,29.97,ESE,104,0.0,0.0,84,0.00,,---,0.00,VWS V14.01,2013-08-09 12:21:00,
2013-08-09 08:25:00,75.4,71.9,29.97,SSE,165,0.0,1.0,89,0.00,,---,0.00,VWS V14.01,2013-08-09 12:25:00,
2013-08-09 08:26:00,77.6,72.4,29.97,ESE,104,0.0,0.0,84,0.00,,---,0.00,VWS V14.01,2013-08-09 12:26:00,
2013-08-09 08:30:00,75.6,72.1,29.97,SSE,165,0.0,0.0,89,0.00,,---,0.00,VWS V14.01,2013-08-09 12:30:00,
2013-08-09 08:31:00,77.7,72.1,29.97,ESE,104,0.0,1.0,83,0.00,,---,0.00,VWS V14.01,2013-08-09 12:31:00,
2013-08-09 08:35:00,75.6,72.1,29.97,SSE,164,0.0,1.0,89,0.00,,---,0.00,VWS V14.01,2013-08-09 12:35:00,
2013-08-09 08:36:00,78.1,72.5,29.97,NE,56,0.0,5.0,83,0.00,,---,0.00,VWS V14.01,2013-08-09 12:36:00,
2013-08-09 08:40:00,75.8,72.0,29.97,SSE,161,0.0,0.0,88,0.00,,---,0.00,VWS V14.01,2013-08-09 12:40:00,
2013-08-09 08:41:00,78.3,72.7,29.97,East,99,0.0,2.0,83,0.00,,---,0.00,VWS V14.01,2013-08-09 12:41:00,
2013-08-09 08:45:00,76.0,72.2,29.97,SE,145,0.0,1.0,88,0.00,,---,0.00,VWS V14.01,2013-08-09 12:45:00,
2013-08-09 08:46:00,78.5,72.2,29.97,NE,54,0.0,5.0,81,0.00,,---,0.00,VWS V14.01,2013-08-09 12:46:00,
2013-08-09 08:50:00,76.1,72.3,29.97,SE,145,0.0,0.0,88,0.00,,---,0.00,VWS V14.01,2013-08-09 12:50:00,
2013-08-09 08:51:00,78.6,72.3,29.97,ENE,59,0.0,1.0,81,0.00,,---,0.00,VWS V14.01,2013-08-09 12:51:00,
2013-08-09 08:55:00,76.1,71.9,29.97,West,275,0.0,2.0,87,0.00,,---,0.00,VWS V14.01,2013-08-09 12:55:00,
2013-08-09 08:56:00,78.8,72.5,29.97,East,88,0.0,3.0,81,0.00,,---,0.00,VWS V14.01,2013-08-09 12:56:00,
2013-08-09 09:00:00,79.2,72.5,29.97,ENE,73,0.0,2.0,80,0.00,,---,0.00,VWS V14.01,2013-08-09 13:00:00,
2013-08-09 09:05:00,79.4,72.7,29.97,ENE,73,0.0,2.0,80,0.00,,---,0.00,VWS V14.01,2013-08-09 13:05:00,
2013-08-09 09:10:00,79.4,72.7,29.97,ENE,62,0.0,0.0,80,0.00,,---,0.00,VWS V14.01,2013-08-09 13:10:00,
2013-08-09 09:15:00,79.6,72.9,29.97,NE,44,0.0,1.0,80,0.00,,---,0.00,VWS V14.01,2013-08-09 13:15:00,
2013-08-09 09:20:00,79.8,72.7,29.97,NNE,23,0.0,4.0,79,0.00,,---,0.00,VWS V14.01,2013-08-09 13:20:00,
2013-08-09 09:25:00,79.9,72.8,29.97,NNE,28,0.0,0.0,79,0.00,,---,0.00,VWS V14.01,2013-08-09 13:25:00,
2013-08-09 09:30:00,80.1,73.0,29.97,NNE,28,0.0,0.0,79,0.00,,---,0.00,VWS V14.01,2013-08-09 13:30:00,
2013-08-09 09:35:00,80.3,72.8,29.97,East,88,0.0,3.0,78,0.00,,---,0.00,VWS V14.01,2013-08-09 13:35:00,
2013-08-09 09:40:00,80.5,73.0,29.97,East,93,0.0,5.0,78,0.00,,---,0.00,VWS V14.01,2013-08-09 13:40:00,
2013-08-09 09:45:00,80.7,72.8,29.97,ESE,102,0.0,6.0,77,0.00,,---,0.00,VWS V14.01,2013-08-09 13:45:00,
2013-08-09 09:50:00,81.1,73.2,29.97,ESE,109,3.0,6.0,77,0.00,,---,0.00,VWS V14.01,2013-08-09 13:50:00,
2013-08-09 09:55:00,81.2,72.9,29.97,NE,51,0.0,2.0,76,0.00,,---,0.00,VWS V14.01,2013-08-09 13:55:00,
2013-08-09 10:00:00,81.6,73.3,29.97,East,95,0.0,2.0,76,0.00,,---,0.00,VWS V14.01,2013-08-09 14:00:00,
2013-08-09 10:05:00,82.0,73.7,29.97,East,93,0.0,6.0,76,0.00,,---,0.00,VWS V14.01,2013-08-09 14:05:00,
2013-08-09 10:10:00,82.4,73.3,29.97,East,93,0.0,5.0,74,0.00,,---,0.00,VWS V14.01,2013-08-09 14:10:00,
2013-08-09 10:15:00,82.6,73.5,29.97,ENE,75,0.0,0.0,74,0.00,,---,0.00,VWS V14.01,2013-08-09 14:15:00,
2013-08-09 10:20:00,83.0,73.5,29.97,ESE,121,7.0,12.0,73,0.00,,---,0.00,VWS V14.01,2013-08-09 14:20:00,
2013-08-09 10:25:00,83.4,73.8,29.97,ESE,116,0.0,2.0,73,0.00,,---,0.00,VWS V14.01,2013-08-09 14:25:00,
2013-08-09 10:30:00,83.8,73.4,29.98,NE,51,0.0,1.0,71,0.00,,---,0.00,VWS V14.01,2013-08-09 14:30:00,
2013-08-09 10:35:00,84.3,73.5,29.98,ESE,121,10.0,10.0,70,0.00,,---,0.00,VWS V14.01,2013-08-09 14:35:00,
2013-08-09 10:40:00,84.7,74.3,29.98,East,86,0.0,5.0,71,0.00,,---,0.00,VWS V14.01,2013-08-09 14:40:00,
2013-08-09 10:45:00,85.1,73.8,29.98,East,97,0.0,5.0,69,0.00,,---,0.00,VWS V14.01,2013-08-09 14:45:00,
2013-08-09 10:50:00,85.5,73.7,29.98,North,4,0.0,5.0,68,0.00,,---,0.00,VWS V14.01,2013-08-09 14:50:00,
2013-08-09 10:55:00,85.7,73.0,29.98,ENE,61,0.0,5.0,66,0.00,,---,0.00,VWS V14.01,2013-08-09 14:55:00,
2013-08-09 11:00:00,86.1,73.4,29.98,NE,47,0.0,3.0,66,0.00,,---,0.00,VWS V14.01,2013-08-09 15:00:00,
2013-08-09 11:05:00,86.3,73.2,29.98,East,83,6.0,6.0,65,0.00,,---,0.00,VWS V14.01,2013-08-09 15:05:00,
2013-08-09 11:10:00,86.5,72.9,29.98,South,174,0.0,6.0,64,0.00,,---,0.00,VWS V14.01,2013-08-09 15:10:00,
2013-08-09 11:15:00,87.2,73.6,29.98,East,92,0.0,4.0,64,0.00,,---,0.00,VWS V14.01,2013-08-09 15:15:00,
2013-08-09 11:20:00,87.4,73.7,29.98,NNE,16,0.0,2.0,64,0.00,,---,0.00,VWS V14.01,2013-08-09 15:20:00,
2013-08-09 11:25:00,87.6,73.9,29.98,ENE,71,0.0,2.0,64,0.00,,---,0.00,VWS V14.01,2013-08-09 15:25:00,
2013-08-09 11:30:00,87.8,73.6,29.98,ESE,110,0.0,3.0,63,0.00,,---,0.00,VWS V14.01,2013-08-09 15:30:00,
2013-08-09 11:35:00,88.0,73.8,29.98,East,100,0.0,0.0,63,0.00,,---,0.00,VWS V14.01,2013-08-09 15:35:00,
2013-08-09 11:40:00,88.2,74.5,29.98,NE,49,0.0,5.0,64,0.00,,---,0.00,VWS V14.01,2013-08-09 15:40:00,
2013-08-09 11:45:00,88.6,73.9,29.97,ENE,59,0.0,1.0,62,0.00,,---,0.00,VWS V14.01,2013-08-09 15:45:00,
2013-08-09 11:50:00,89.3,73.6,29.97,South,184,0.0,5.0,60,0.00,,---,0.00,VWS V14.01,2013-08-09 15:50:00,
2013-08-09 11:55:00,89.5,73.3,29.97,NNE,21,0.0,0.0,59,0.00,,---,0.00,VWS V14.01,2013-08-09 15:55:00,
2013-08-09 12:00:00,89.5,73.8,29.97,ESE,107,0.0,0.0,60,0.00,,---,0.00,VWS V14.01,2013-08-09 16:00:00,
2013-08-09 12:05:00,89.3,73.6,29.97,East,86,0.0,4.0,60,0.00,,---,0.00,VWS V14.01,2013-08-09 16:05:00,
2013-08-09 12:10:00,89.3,74.1,29.97,ENE,76,0.0,0.0,61,0.00,,---,0.00,VWS V14.01,2013-08-09 16:10:00,
2013-08-09 12:15:00,89.0,72.8,29.97,ESE,106,0.0,8.0,59,0.00,,---,0.00,VWS V14.01,2013-08-09 16:15:00,
2013-08-09 12:20:00,89.0,72.3,29.97,NNE,21,0.0,5.0,58,0.00,,---,0.00,VWS V14.01,2013-08-09 16:20:00,
2013-08-09 12:25:00,88.8,73.1,29.97,East,90,0.0,2.0,60,0.00,,---,0.00,VWS V14.01,2013-08-09 16:25:00,
2013-08-09 12:30:00,88.6,72.4,29.97,ESE,110,0.0,10.0,59,0.00,,---,0.00,VWS V14.01,2013-08-09 16:30:00,
2013-08-09 12:35:00,89.0,73.3,29.97,East,82,0.0,3.0,60,0.00,,---,0.00,VWS V14.01,2013-08-09 16:35:00,
2013-08-09 12:40:00,89.3,72.6,29.97,SE,126,0.0,3.0,58,0.00,,---,0.00,VWS V14.01,2013-08-09 16:40:00,
2013-08-09 12:45:00,89.7,73.5,29.96,ESE,114,0.0,5.0,59,0.00,,---,0.00,VWS V14.01,2013-08-09 16:45:00,
2013-08-09 12:50:00,89.9,71.6,29.96,ESE,123,0.0,8.0,55,0.00,,---,0.00,VWS V14.01,2013-08-09 16:50:00,
2013-08-09 12:55:00,90.1,71.8,29.96,SSE,161,1.0,6.0,55,0.00,,---,0.00,VWS V14.01,2013-08-09 16:55:00,
2013-08-09 13:00:00,90.1,73.3,29.96,NE,54,0.0,3.0,58,0.00,,---,0.00,VWS V14.01,2013-08-09 17:00:00,
2013-08-09 13:05:00,90.1,72.8,29.96,ENE,71,0.0,1.0,57,0.00,,---,0.00,VWS V14.01,2013-08-09 17:05:00,
2013-08-09 13:10:00,90.1,73.3,29.96,ENE,61,0.0,1.0,58,0.00,,---,0.00,VWS V14.01,2013-08-09 17:10:00,
2013-08-09 13:15:00,90.1,73.8,29.96,ENE,75,0.0,0.0,59,0.00,,---,0.00,VWS V14.01,2013-08-09 17:15:00,
2013-08-09 13:20:00,90.5,72.7,29.96,East,100,0.0,1.0,56,0.00,,---,0.00,VWS V14.01,2013-08-09 17:20:00,
2013-08-09 13:25:00,91.0,73.1,29.96,East,93,3.0,5.0,56,0.00,,---,0.00,VWS V14.01,2013-08-09 17:25:00,
2013-08-09 13:30:00,91.0,73.7,29.96,East,93,0.0,2.0,57,0.00,,---,0.00,VWS V14.01,2013-08-09 17:30:00,
2013-08-09 13:35:00,90.3,71.9,29.96,East,97,0.0,5.0,55,0.00,,---,0.00,VWS V14.01,2013-08-09 17:35:00,
2013-08-09 13:40:00,90.1,73.8,29.96,ESE,106,0.0,5.0,59,0.00,,---,0.00,VWS V14.01,2013-08-09 17:40:00,
2013-08-09 13:45:00,90.3,72.5,29.95,ENE,72,0.0,0.0,56,0.00,,---,0.00,VWS V14.01,2013-08-09 17:45:00,
2013-08-09 13:50:00,90.1,73.3,29.95,East,95,0.0,11.0,58,0.00,,---,0.00,VWS V14.01,2013-08-09 17:50:00,
2013-08-09 13:55:00,90.1,72.8,29.95,East,83,0.0,6.0,57,0.00,,---,0.00,VWS V14.01,2013-08-09 17:55:00,
2013-08-09 14:00:00,90.3,71.9,29.95,East,83,0.0,3.0,55,0.00,,---,0.00,VWS V14.01,2013-08-09 18:00:00,
2013-08-09 14:05:00,90.7,72.9,29.95,East,85,0.0,6.0,56,0.00,,---,0.00,VWS V14.01,2013-08-09 18:05:00,
2013-08-09 14:10:00,91.4,71.9,29.95,East,97,0.0,3.0,53,0.00,,---,0.00,VWS V14.01,2013-08-09 18:10:00,
2013-08-09 14:15:00,91.4,72.4,29.95,East,80,0.0,1.0,54,0.00,,---,0.00,VWS V14.01,2013-08-09 18:15:00,
2013-08-09 14:20:00,91.4,73.5,29.95,NNE,25,0.0,0.0,56,0.00,,---,0.00,VWS V14.01,2013-08-09 18:20:00,
2013-08-09 14:25:00,91.8,73.3,29.95,NE,34,0.0,0.0,55,0.00,,---,0.00,VWS V14.01,2013-08-09 18:25:00,
2013-08-09 14:30:00,91.8,72.2,29.94,NE,34,0.0,3.0,53,0.00,,---,0.00,VWS V14.01,2013-08-09 18:30:00,
2013-08-09 14:35:00,92.1,72.0,29.94,NE,54,0.0,1.0,52,0.00,,---,0.00,VWS V14.01,2013-08-09 18:35:00,
2013-08-09 14:40:00,92.1,72.5,29.94,NE,51,0.0,5.0,53,0.00,,---,0.00,VWS V14.01,2013-08-09 18:40:00,
2013-08-09 14:45:00,92.3,73.8,29.94,NE,40,0.0,0.0,55,0.00,,---,0.00,VWS V14.01,2013-08-09 18:45:00,
2013-08-09 14:50:00,92.3,72.7,29.94,East,89,0.0,2.0,53,0.00,,---,0.00,VWS V14.01,2013-08-09 18:50:00,
2013-08-09 14:55:00,92.1,71.4,29.94,ESE,103,0.0,5.0,51,0.00,,---,0.00,VWS V14.01,2013-08-09 18:55:00,
2013-08-09 15:00:00,92.3,72.1,29.94,East,80,0.0,5.0,52,0.00,,---,0.00,VWS V14.01,2013-08-09 19:00:00,
2013-08-09 15:05:00,91.8,71.7,29.94,East,82,0.0,5.0,52,0.00,,---,0.00,VWS V14.01,2013-08-09 19:05:00,
2013-08-09 15:10:00,91.8,72.2,29.94,SE,126,3.0,8.0,53,0.00,,---,0.00,VWS V14.01,2013-08-09 19:10:00,
2013-08-09 15:15:00,91.8,72.2,29.94,North,3,0.0,6.0,53,0.00,,---,0.00,VWS V14.01,2013-08-09 19:15:00,
2013-08-09 15:20:00,91.8,72.8,29.94,East,80,0.0,7.0,54,0.00,,---,0.00,VWS V14.01,2013-08-09 19:20:00,
2013-08-09 15:25:00,91.6,71.5,29.94,ENE,65,0.0,3.0,52,0.00,,---,0.00,VWS V14.01,2013-08-09 19:25:00,
2013-08-09 15:30:00,91.4,71.3,29.93,NNE,23,0.0,5.0,52,0.00,,---,0.00,VWS V14.01,2013-08-09 19:30:00,
2013-08-09 15:35:00,91.4,72.4,29.93,ESE,116,0.0,2.0,54,0.00,,---,0.00,VWS V14.01,2013-08-09 19:35:00,
2013-08-09 15:40:00,91.4,72.4,29.93,ESE,106,3.0,3.0,54,0.00,,---,0.00,VWS V14.01,2013-08-09 19:40:00,
2013-08-09 15:45:00,91.2,72.2,29.93,ESE,102,0.0,10.0,54,0.00,,---,0.00,VWS V14.01,2013-08-09 19:45:00,
2013-08-09 15:50:00,91.2,71.7,29.93,ESE,106,1.0,5.0,53,0.00,,---,0.00,VWS V14.01,2013-08-09 19:50:00,
2013-08-09 15:55:00,90.7,71.8,29.93,ESE,114,0.0,7.0,54,0.00,,---,0.00,VWS V14.01,2013-08-09 19:55:00,
2013-08-09 16:00:00,90.3,71.4,29.93,NE,48,0.0,6.0,54,0.00,,---,0.00,VWS V14.01,2013-08-09 20:00:00,
2013-08-09 16:05:00,90.3,73.5,29.93,ENE,65,0.0,0.0,58,0.00,,---,0.00,VWS V14.01,2013-08-09 20:05:00,
2013-08-09 16:10:00,90.3,72.5,29.93,ENE,71,0.0,5.0,56,0.00,,---,0.00,VWS V14.01,2013-08-09 20:10:00,
2013-08-09 16:15:00,90.3,72.5,29.92,SE,143,0.0,4.0,56,0.00,,---,0.00,VWS V14.01,2013-08-09 20:15:00,
2013-08-09 16:20:00,90.1,72.3,29.92,ESE,109,0.0,0.0,56,0.00,,---,0.00,VWS V14.01,2013-08-09 20:20:00,
2013-08-09 16:25:00,90.1,73.3,29.92,ENE,65,2.0,7.0,58,0.00,,---,0.00,VWS V14.01,2013-08-09 20:25:00,
2013-08-09 16:30:00,90.1,72.3,29.92,SSE,148,0.0,6.0,56,0.00,,---,0.00,VWS V14.01,2013-08-09 20:30:00,
2013-08-09 16:35:00,89.9,73.7,29.92,East,79,0.0,2.0,59,0.00,,---,0.00,VWS V14.01,2013-08-09 20:35:00,
2013-08-09 16:40:00,89.7,73.5,29.92,NE,37,0.0,1.0,59,0.00,,---,0.00,VWS V14.01,2013-08-09 20:40:00,
2013-08-09 16:45:00,89.5,71.7,29.91,East,89,0.0,3.0,56,0.00,,---,0.00,VWS V14.01,2013-08-09 20:45:00,
2013-08-09 16:50:00,89.5,72.3,29.91,South,176,2.0,6.0,57,0.00,,---,0.00,VWS V14.01,2013-08-09 20:50:00,
2013-08-09 16:55:00,89.5,71.7,29.91,SSE,151,0.0,4.0,56,0.00,,---,0.00,VWS V14.01,2013-08-09 20:55:00,
2013-08-09 17:00:00,89.5,71.7,29.91,SE,128,0.0,7.0,56,0.00,,---,0.00,VWS V14.01,2013-08-09 21:00:00,
2013-08-09 17:05:00,89.5,71.7,29.91,SE,133,2.0,6.0,56,0.00,,---,0.00,VWS V14.01,2013-08-09 21:05:00,
2013-08-09 17:10:00,89.3,71.6,29.91,East,90,1.0,5.0,56,0.00,,---,0.00,VWS V14.01,2013-08-09 21:10:00,
2013-08-09 17:15:00,89.3,72.6,29.91,ESE,114,0.0,2.0,58,0.00,,---,0.00,VWS V14.01,2013-08-09 21:15:00,
2013-08-09 17:20:00,89.0,72.8,29.91,East,95,0.0,1.0,59,0.00,,---,0.00,VWS V14.01,2013-08-09 21:20:00,
2013-08-09 17:25:00,88.6,71.9,29.91,East,95,0.0,2.0,58,0.00,,---,0.00,VWS V14.01,2013-08-09 21:25:00,
2013-08-09 17:30:00,88.6,72.4,29.91,NNE,31,0.0,2.0,59,0.00,,---,0.00,VWS V14.01,2013-08-09 21:30:00,
2013-08-09 17:35:00,88.4,72.3,29.92,ESE,110,0.0,3.0,59,0.00,,---,0.00,VWS V14.01,2013-08-09 21:35:00,
2013-08-09 17:40:00,88.6,71.9,29.92,East,88,0.0,2.0,58,0.00,,---,0.00,VWS V14.01,2013-08-09 21:40:00,
2013-08-09 17:45:00,88.4,71.2,29.92,East,88,0.0,3.0,57,0.00,,---,0.00,VWS V14.01,2013-08-09 21:45:00,
2013-08-09 17:50:00,88.2,72.1,29.92,ESE,106,1.0,2.0,59,0.00,,---,0.00,VWS V14.01,2013-08-09 21:50:00,
2013-08-09 17:55:00,88.0,72.4,29.92,SE,143,0.0,0.0,60,0.00,,---,0.00,VWS V14.01,2013-08-09 21:55:00,
2013-08-09 18:00:00,87.8,72.7,29.91,East,99,0.0,0.0,61,0.00,,---,0.00,VWS V14.01,2013-08-09 22:00:00,
2013-08-09 18:05:00,87.4,72.3,29.91,East,99,0.0,0.0,61,0.00,,---,0.00,VWS V14.01,2013-08-09 22:05:00,
2013-08-09 18:10:00,87.0,71.9,29.91,East,97,0.0,2.0,61,0.00,,---,0.00,VWS V14.01,2013-08-09 22:10:00,
2013-08-09 18:15:00,86.5,72.4,29.92,East,97,0.0,0.0,63,0.00,,---,0.00,VWS V14.01,2013-08-09 22:15:00,
2013-08-09 18:20:00,86.3,72.7,29.92,East,97,0.0,0.0,64,0.00,,---,0.00,VWS V14.01,2013-08-09 22:20:00,
2013-08-09 18:25:00,85.9,72.8,29.92,East,80,0.0,0.0,65,0.00,,---,0.00,VWS V14.01,2013-08-09 22:25:00,
2013-08-09 18:30:00,85.7,73.0,29.91,East,80,0.0,0.0,66,0.00,,---,0.00,VWS V14.01,2013-08-09 22:30:00,
2013-08-09 18:35:00,85.5,72.8,29.91,East,80,0.0,0.0,66,0.00,,---,0.00,VWS V14.01,2013-08-09 22:35:00,
2013-08-09 18:40:00,85.5,72.8,29.91,East,92,0.0,2.0,66,0.00,,---,0.00,VWS V14.01,2013-08-09 22:40:00,
2013-08-09 18:45:00,85.3,72.2,29.91,East,92,0.0,0.0,65,0.00,,---,0.00,VWS V14.01,2013-08-09 22:45:00,
2013-08-09 18:50:00,85.3,73.1,29.91,East,92,0.0,0.0,67,0.00,,---,0.00,VWS V14.01,2013-08-09 22:50:00,
2013-08-09 18:55:00,85.1,72.9,29.91,East,92,0.0,0.0,67,0.00,,---,0.00,VWS V14.01,2013-08-09 22:55:00,
2013-08-09 19:00:00,84.9,73.2,29.91,East,92,0.0,0.0,68,0.00,,---,0.00,VWS V14.01,2013-08-09 23:00:00,
2013-08-09 19:05:00,84.9,73.2,29.91,East,92,0.0,0.0,68,0.00,,---,0.00,VWS V14.01,2013-08-09 23:05:00,
2013-08-09 19:10:00,84.7,73.0,29.91,East,92,0.0,0.0,68,0.00,,---,0.00,VWS V14.01,2013-08-09 23:10:00,
2013-08-09 19:15:00,84.7,73.0,29.91,East,92,0.0,0.0,68,0.00,,---,0.00,VWS V14.01,2013-08-09 23:15:00,
2013-08-09 19:20:00,84.5,73.2,29.91,East,92,0.0,0.0,69,0.00,,---,0.00,VWS V14.01,2013-08-09 23:20:00,
2013-08-09 19:25:00,84.3,73.5,29.91,East,92,0.0,0.0,70,0.00,,---,0.00,VWS V14.01,2013-08-09 23:25:00,
2013-08-09 19:30:00,84.1,73.3,29.92,East,92,0.0,0.0,70,0.00,,---,0.00,VWS V14.01,2013-08-09 23:30:00,
2013-08-09 19:35:00,84.1,73.3,29.92,East,92,0.0,0.0,70,0.00,,---,0.00,VWS V14.01,2013-08-09 23:35:00,
2013-08-09 19:40:00,84.0,73.2,29.92,East,92,0.0,1.0,70,0.00,,---,0.00,VWS V14.01,2013-08-09 23:40:00,
2013-08-09 19:45:00,83.8,73.0,29.92,East,92,0.0,0.0,70,0.00,,---,0.00,VWS V14.01,2013-08-09 23:45:00,
2013-08-09 19:50:00,83.8,73.0,29.93,East,92,0.0,0.0,70,0.00,,---,0.00,VWS V14.01,2013-08-09 23:50:00,
2013-08-09 19:55:00,83.6,73.2,29.93,East,92,0.0,0.0,71,0.00,,---,0.00,VWS V14.01,2013-08-09 23:55:00,
2013-08-09 20:00:00,83.4,73.0,29.93,East,92,0.0,0.0,71,0.00,,---,0.00,VWS V14.01,2013-08-10 00:00:00,
2013-08-09 20:05:00,83.2,73.2,29.93,East,92,0.0,0.0,72,0.00,,---,0.00,VWS V14.01,2013-08-10 00:05:00,
2013-08-09 20:10:00,83.0,73.5,29.93,East,92,0.0,0.0,73,0.00,,---,0.00,VWS V14.01,2013-08-10 00:10:00,
2013-08-09 20:15:00,82.8,73.3,29.93,East,92,0.0,0.0,73,0.00,,---,0.00,VWS V14.01,2013-08-10 00:15:00,
2013-08-09 20:20:00,82.6,73.1,29.93,East,92,0.0,0.0,73,0.00,,---,0.00,VWS V14.01,2013-08-10 00:20:00,
2013-08-09 20:25:00,82.4,72.9,29.93,East,89,0.0,0.0,73,0.00,,---,0.00,VWS V14.01,2013-08-10 00:25:00,
2013-08-09 20:30:00,82.4,73.3,29.93,East,89,0.0,0.0,74,0.00,,---,0.00,VWS V14.01,2013-08-10 00:30:00,
2013-08-09 20:35:00,82.2,73.1,29.93,East,89,0.0,0.0,74,0.00,,---,0.00,VWS V14.01,2013-08-10 00:35:00,
2013-08-09 20:40:00,82.0,72.9,29.93,East,89,0.0,0.0,74,0.00,,---,0.00,VWS V14.01,2013-08-10 00:40:00,
2013-08-09 20:45:00,81.8,73.1,29.93,East,89,0.0,0.0,75,0.00,,---,0.00,VWS V14.01,2013-08-10 00:45:00,
2013-08-09 20:50:00,81.6,72.9,29.93,East,89,0.0,0.0,75,0.00,,---,0.00,VWS V14.01,2013-08-10 00:50:00,
2013-08-09 20:55:00,81.6,72.9,29.93,East,89,0.0,0.0,75,0.00,,---,0.00,VWS V14.01,2013-08-10 00:55:00,
2013-08-09 21:00:00,81.4,72.7,29.93,East,89,0.0,0.0,75,0.00,,---,0.00,VWS V14.01,2013-08-10 01:00:00,
2013-08-09 21:05:00,81.2,72.5,29.93,East,89,0.0,0.0,75,0.00,,---,0.00,VWS V14.01,2013-08-10 01:05:00,
2013-08-09 21:10:00,81.2,72.5,29.93,East,89,0.0,0.0,75,0.00,,---,0.00,VWS V14.01,2013-08-10 01:10:00,
2013-08-09 21:15:00,81.1,72.4,29.93,East,89,0.0,0.0,75,0.00,,---,0.00,VWS V14.01,2013-08-10 01:15:00,
2013-08-09 21:20:00,80.9,72.2,29.94,ESE,104,0.0,1.0,75,0.00,,---,0.00,VWS V14.01,2013-08-10 01:20:00,
2013-08-09 21:25:00,80.9,72.2,29.94,ESE,104,0.0,0.0,75,0.00,,---,0.00,VWS V14.01,2013-08-10 01:25:00,
2013-08-09 21:30:00,80.7,72.4,29.94,ESE,104,0.0,0.0,76,0.00,,---,0.00,VWS V14.01,2013-08-10 01:30:00,
2013-08-09 21:35:00,80.5,72.2,29.95,ESE,104,0.0,0.0,76,0.00,,---,0.00,VWS V14.01,2013-08-10 01:35:00,
2013-08-09 21:40:00,80.3,72.1,29.95,ESE,104,0.0,0.0,76,0.00,,---,0.00,VWS V14.01,2013-08-10 01:40:00,
2013-08-09 21:45:00,80.1,71.5,29.95,ESE,104,0.0,0.0,75,0.00,,---,0.00,VWS V14.01,2013-08-10 01:45:00,
2013-08-09 21:50:00,80.1,71.9,29.95,ESE,104,0.0,0.0,76,0.00,,---,0.00,VWS V14.01,2013-08-10 01:50:00,
2013-08-09 21:55:00,79.9,71.7,29.95,ESE,104,0.0,0.0,76,0.00,,---,0.00,VWS V14.01,2013-08-10 01:55:00,
2013-08-09 22:00:00,79.8,71.6,29.95,ESE,104,0.0,0.0,76,0.00,,---,0.00,VWS V14.01,2013-08-10 02:00:00,
2013-08-09 22:05:00,79.8,71.6,29.96,ESE,104,0.0,0.0,76,0.00,,---,0.00,VWS V14.01,2013-08-10 02:05:00,
2013-08-09 22:10:00,79.6,71.4,29.96,ESE,104,0.0,0.0,76,0.00,,---,0.00,VWS V14.01,2013-08-10 02:10:00,
2013-08-09 22:15:00,79.6,71.0,29.96,ESE,104,0.0,0.0,75,0.00,,---,0.00,VWS V14.01,2013-08-10 02:15:00,
2013-08-09 22:20:00,79.4,70.8,29.96,ESE,104,0.0,0.0,75,0.00,,---,0.00,VWS V14.01,2013-08-10 02:20:00,
2013-08-09 22:25:00,79.4,70.8,29.96,ESE,104,0.0,0.0,75,0.00,,---,0.00,VWS V14.01,2013-08-10 02:25:00,
2013-08-09 22:30:00,79.4,71.2,29.96,ESE,104,0.0,0.0,76,0.00,,---,0.00,VWS V14.01,2013-08-10 02:30:00,
2013-08-09 22:35:00,79.4,70.8,29.96,ESE,104,0.0,0.0,75,0.00,,---,0.00,VWS V14.01,2013-08-10 02:35:00,
2013-08-09 22:40:00,79.2,70.6,29.96,ESE,104,0.0,0.0,75,0.00,,---,0.00,VWS V14.01,2013-08-10 02:40:00,
2013-08-09 22:45:00,79.2,71.0,29.96,ESE,104,0.0,0.0,76,0.00,,---,0.00,VWS V14.01,2013-08-10 02:45:00,
2013-08-09 22:50:00,79.2,71.0,29.96,ESE,104,0.0,0.0,76,0.00,,---,0.00,VWS V14.01,2013-08-10 02:50:00,
2013-08-09 22:55:00,79.2,71.0,29.96,ESE,104,0.0,0.0,76,0.00,,---,0.00,VWS V14.01,2013-08-10 02:55:00,
2013-08-09 23:00:00,79.0,71.2,29.96,ESE,104,0.0,0.0,77,0.00,,---,0.00,VWS V14.01,2013-08-10 03:00:00,
2013-08-09 23:05:00,79.0,70.8,29.97,ESE,104,0.0,0.0,76,0.00,,---,0.00,VWS V14.01,2013-08-10 03:05:00,
2013-08-09 23:10:00,78.8,71.4,29.97,ESE,104,0.0,0.0,78,0.00,,---,0.00,VWS V14.01,2013-08-10 03:10:00,
2013-08-09 23:15:00,78.8,71.4,29.97,ESE,104,0.0,0.0,78,0.00,,---,0.00,VWS V14.01,2013-08-10 03:15:00,
2013-08-09 23:20:00,78.6,71.2,29.97,ESE,104,0.0,0.0,78,0.00,,---,0.00,VWS V14.01,2013-08-10 03:20:00,
2013-08-09 23:25:00,78.6,71.2,29.97,ESE,104,0.0,0.0,78,0.00,,---,0.00,VWS V14.01,2013-08-10 03:25:00,
2013-08-09 23:30:00,78.6,71.2,29.97,ESE,104,0.0,0.0,78,0.00,,---,0.00,VWS V14.01,2013-08-10 03:30:00,
2013-08-09 23:35:00,78.6,71.2,29.97,ESE,104,0.0,0.0,78,0.00,,---,0.00,VWS V14.01,2013-08-10 03:35:00,
2013-08-09 23:40:00,78.5,71.4,29.97,ESE,104,0.0,0.0,79,0.00,,---,0.00,VWS V14.01,2013-08-10 03:40:00,
2013-08-09 23:45:00,78.5,71.4,29.97,ESE,104,0.0,0.0,79,0.00,,---,0.00,VWS V14.01,2013-08-10 03:45:00,
2013-08-09 23:50:00,78.3,71.3,29.98,ESE,104,0.0,0.0,79,0.00,,---,0.00,VWS V14.01,2013-08-10 03:50:00,
2013-08-09 23:55:00,78.3,71.3,29.98,ESE,104,0.0,0.0,79,0.00,,---,0.00,VWS V14.01,2013-08-10 03:55:00,